Home > Weather > Chesapeake > Past weeks

Flag for USA Past Weather in Chesapeake, Virginia, USA — Yesterday and Last 2 Weeks

Now
75 °F

Sunny.


Feels Like: 75 °F
Forecast: 66 / 88 °F
Wind: 5 mph from South

Location: Chesapeake Municipal Airport

Current Time: Aug 25, 2016 at 9:31:22 AM

Latest Report: Aug 25, 2016 at 8:55 AM


Visibility: 10 mi

Pressure: 30.17 "Hg

Humidity: 83%

Dew Point: 69 °F

Location of ChesapeakeLocation

Past Weather in Chesapeake — Graph

°F

Chesapeake Temperature Yesterday

Maximum temperature yesterday: 83 °F (at 1:55 PM)
Minimum temperature yesterday: 56 °F (at 5:55 AM)
Average temperature yesterday: 70 °F

High & Low Weather Summary for the Past Weeks

 TemperatureHumidityPressure
High94 °F (Aug 14, 4:15 PM)99% (Aug 11, 5:15 AM)30.32 "Hg (Aug 11, 5:15 AM)
Low56 °F (Aug 24, 5:55 AM)35% (Aug 22, 2:35 PM)29.77 "Hg (Aug 21, 4:55 PM)
Average79 °F78%30.08 "Hg
* Reported Aug 10 8:15 AM — Aug 25 8:15 AM, Chesapeake, Weather by CustomWeather, © 2016

Note: Actual official high and low records may vary slightly from our data, if they occured in-between our weather recording intervals... More about our weather records

Advertising

Chesapeake Weather History for the Previous 24 Hours

Scroll right to see more
 ConditionsComfort  
Time TempWeatherWind HumidityBarometerVisibility
8:15 AM
Thu, Aug 25
68 °FSunny.No wind94%30.18 "Hg10 mi
7:55 AM65 °FSunny.No wind95%30.18 "Hg10 mi
7:35 AM63 °FScattered clouds.No wind96%30.18 "Hg10 mi
7:15 AM61 °FFog.No wind99%30.18 "Hg0 mi
6:55 AM60 °FFog.No wind99%30.18 "Hg2 mi
6:15 AM60 °FLow clouds.No wind98%30.16 "Hg7 mi
5:55 AM61 °FLow clouds.No wind97%30.17 "Hg10 mi
5:35 AM60 °FPassing clouds.No wind98%30.17 "Hg10 mi
5:15 AM61 °FClear.No wind97%30.17 "Hg10 mi
4:55 AM61 °FClear.No wind98%30.16 "Hg7 mi
4:35 AM61 °FClear.No wind95%30.17 "Hg10 mi
4:15 AM61 °FClear.No wind93%30.17 "Hg10 mi
3:55 AM61 °FClear.No wind96%30.16 "Hg10 mi
3:15 AM62 °FClear.No wind98%30.16 "Hg7 mi
2:55 AM62 °FClear.No wind93%30.17 "Hg10 mi
2:35 AM62 °FFog.No wind97%30.18 "Hg4 mi
2:15 AM62 °FFog.No wind98%30.18 "Hg1 mi
1:55 AM62 °FPassing clouds.No wind96%30.18 "Hg10 mi
1:15 AM62 °FPassing clouds.No wind93%30.19 "Hg10 mi
12:55 AM63 °FClear.No wind97%30.19 "Hg10 mi
12:15 AM64 °FClear.No wind97%30.20 "Hg10 mi
11:55 PM
Wed, Aug 24
64 °FClear.No wind90%30.20 "Hg10 mi
11:35 PM64 °FClear.No wind92%30.20 "Hg10 mi
11:15 PM65 °FClear.No wind95%30.21 "Hg10 mi
10:55 PM65 °FClear.No wind89%30.21 "Hg10 mi
10:35 PM67 °FClear.No wind91%30.21 "Hg10 mi
10:15 PM67 °FClear.No wind90%30.22 "Hg10 mi
9:55 PM68 °FClear.No wind88%30.22 "Hg10 mi
9:35 PM70 °FClear.No wind87%30.22 "Hg10 mi
9:15 PM70 °FClear.No wind86%30.22 "Hg10 mi
8:55 PM70 °FClear.No wind86%30.22 "Hg10 mi
8:35 PM71 °FSunny.3 mph83%30.21 "Hg10 mi
8:15 PM72 °FSunny.5 mph82%30.21 "Hg10 mi
7:55 PM73 °FSunny.3 mph79%30.21 "Hg10 mi
7:35 PM74 °FSunny.5 mph75%30.21 "Hg10 mi
7:15 PM76 °FSunny.6 mph70%30.21 "Hg10 mi
6:55 PM77 °FSunny.5 mph66%30.21 "Hg7 mi
6:35 PM79 °FSunny.6 mph62%30.21 "Hg7 mi
6:15 PM80 °FSunny.7 mph60%30.21 "Hg7 mi
5:55 PM80 °FSunny.6 mph58%30.21 "Hg7 mi
5:15 PM82 °FSunny.7 mph56%30.22 "Hg10 mi
4:55 PM82 °FScattered clouds.8 mph55%30.22 "Hg10 mi
4:35 PM82 °FScattered clouds.12 mph54%30.22 "Hg7 mi
4:15 PM80 °FPartly sunny.7 mph54%30.23 "Hg10 mi
3:55 PM83 °FScattered clouds.No wind46%30.23 "Hg10 mi
3:35 PM83 °FSunny.6 mph46%30.23 "Hg10 mi
3:15 PM83 °FScattered clouds.6 mph45%30.24 "Hg10 mi
2:55 PM83 °FScattered clouds.5 mph44%30.25 "Hg10 mi
2:35 PM83 °FScattered clouds.No wind43%30.25 "Hg10 mi
2:15 PM83 °FScattered clouds.7 mph44%30.26 "Hg10 mi
1:55 PM83 °FScattered clouds.6 mph45%30.26 "Hg10 mi
1:15 PM82 °FSunny.5 mph44%30.28 "Hg10 mi
12:55 PM82 °FSunny.3 mph44%30.27 "Hg10 mi
12:35 PM82 °FSunny.6 mph44%30.28 "Hg10 mi
12:15 PM82 °FSunny.7 mph41%30.29 "Hg10 mi
11:55 AM81 °FSunny.8 mph44%30.29 "Hg10 mi
11:15 AM81 °FSunny.9 mph42%30.30 "Hg10 mi
10:55 AM80 °FSunny.9 mph44%30.30 "Hg10 mi
10:15 AM79 °FSunny.8 mph49%30.31 "Hg10 mi
9:55 AM79 °FSunny.10 mph51%30.31 "Hg10 mi
9:35 AM77 °FSunny.8 mph54%30.31 "Hg10 mi
9:15 AM75 °FSunny.No wind65%30.30 "Hg10 mi
Weather by CustomWeather, © 2016

See weather overviewHow to use our weather pages